Regional Weather Roundup
Issued by NWS Upton, NY

Current Version | Previous Version | Text Only | Print | Product List | Glossary On
Versions: 1 2 3 4 5 6 7 8 9 10 11 12 13 14 15 16 17 18 19 20 21 22 23 24 25 26 27 28 29 30 31 32 33 34 35 36 37 38 39 40 41 42 43 44 45 46 47 48 49 50
000
ASUS41 KOKX 042318
RWROKX

REGIONAL WEATHER ROUNDUP
NATIONAL WEATHER SERVICE NEW YORK NY
700 PM EDT SAT JUL 04 2015

NOTE: "FAIR" INDICATES FEW OR NO CLOUDS BELOW 12,000 FEET WITH NO
SIGNIFICANT WEATHER AND/OR OBSTRUCTIONS TO VISIBILITY.

NYZ071-072-176-178-NJZ106-104-050000-
NEW YORK CITY METRO AREA


CITY           SKY/WX    TMP DP  RH WIND       PRES   REMARKS
CENTRAL PARK   MOSUNNY   74  52  46 E6        29.97S
LAGUARDIA APRT PTSUNNY   75  42  30 E8        29.94S
KENNEDY INTL   PTSUNNY   79  42  26 NE3       29.95R
NEWARK/LIBERTY PTSUNNY   77  57  50 CALM      29.94R
BRNX BOT. GARD   N/A     72  55  56 E2        29.98R
TETERBORO      CLOUDY    75  57  53 NE6       29.94R
$$

NYZ177-179-078>081-050000-
LONG ISLAND NEW YORK

CITY           SKY/WX    TMP DP  RH WIND       PRES   REMARKS
FARMINGDALE    SUNNY     74  59  59 NE8       29.95R
ISLIP          PTSUNNY   74  59  59 NE6       29.93R
SHIRLEY        MOSUNNY   74  59  59 VRB3      29.95R
WESTHAMPTON    MOSUNNY   72  55  55 E5        29.96R
MONTAUK POINT    N/A     70  55  59 N3        29.96R
$$

NYZ052-065-067-050000-
HUDSON VALLEY

CITY           SKY/WX    TMP DP  RH WIND       PRES   REMARKS
WHITE PLAINS   PTSUNNY   73  54  51 CALM      29.96R
NEWBURGH       PTSUNNY   72  63  73 CALM      29.98S
MONTGOMERY     CLOUDY    71  59  65 CALM      29.97S
POUGHKEEPSIE   MOSUNNY   73  58  59 CALM      29.96S
ALBANY         PTSUNNY   68  60  75 SE5       29.96F
$$

NJZ001-105-106-008-010-013-015-019>022-104-050000-
NEW JERSEY

CITY           SKY/WX    TMP DP  RH WIND       PRES   REMARKS
NEWARK/LIBERTY PTSUNNY   77  57  50 CALM      29.94R
TETERBORO      CLOUDY    75  57  53 NE6       29.94R
CALDWELL       CLOUDY    73  56  54 N5        29.96R
MORRISTOWN     CLOUDY    75  63  64 CALM      29.97R
SOMERVILLE     CLOUDY    72  61  68 CALM      29.94R
SUSSEX         CLOUDY    70  59  68 NE5       29.98R
ANDOVER          N/A     69  61  75 CALM      29.98R
TRENTON        CLOUDY    73  54  51 CALM      29.96R
MILLVILLE      CLOUDY    74  66  76 SE5       29.94R
ATLANTIC CITY  PTSUNNY   73  61  65 E9        29.95R
WRIGHTSTOWN    CLOUDY    71  58  62 NE5       29.94R
TOMS RIVER     CLOUDY    73  55  53 CALM      29.96R
BELMAR         CLOUDY    72  54  53 NE5       29.96R
$$

PAZ047>061-062-071-050000-
EASTERN PENNSYLVANIA

CITY           SKY/WX    TMP DP  RH WIND       PRES   REMARKS
PHILADELPHIA   LGT RAIN  72  61  68 E7        29.96R
ALLENTOWN      CLOUDY    68  63  84 N5        29.98R
SCRANTON       CLOUDY    66  62  87 E5        29.99S FOG
$$

CTZ002-004>006-009-010-012-RIZ004-006-007-MAZ004-011-015-050000-
SOUTHERN NEW ENGLAND
 IN CT

CITY           SKY/WX    TMP DP  RH WIND       PRES   REMARKS
BRADLEY INTL   MOSUNNY   70  56  61 N6        29.96S
HARTFORD       SUNNY     70  58  65 NE8       29.96R
DANBURY        MOSUNNY   70  53  54 N6        29.98R
WTRBRY/OXFORD  PTSUNNY   68  55  64 NE6       29.98S
BRIDGEPORT     SUNNY     71  62  73 SE7       29.95R
MERIDEN        SUNNY     73  57  57 N6        29.95S
NEW HAVEN      MOSUNNY   71  52  50 SE8       29.95R
CHESTER        FAIR      72  59  64 N3        29.96S
GROTON         MOSUNNY   73  55  53 NW5       29.94R
WILLIMANTIC    MOSUNNY   73  57  57 N6        29.95S

 IN RI

CITY           SKY/WX    TMP DP  RH WIND       PRES   REMARKS
PROVIDENCE     CLOUDY    74  53  48 N7        29.93F
BLOCK ISLAND   CLOUDY    68  52  56 CALM      29.94R
WESTERLY       PTSUNNY   72  54  53 W3        29.94S

 IN MA

CITY           SKY/WX    TMP DP  RH WIND       PRES   REMARKS
BOSTON         PTSUNNY   68  55  63 E5        29.95S
WORCESTER      MOSUNNY   68  58  70 CALM      29.98S
WESTFIELD      SUNNY     69  59  70 NE5       29.96S
PROVINCETOWN   PTSUNNY   66   9  10 E5        29.95R
NANTUCKET      PTSUNNY   65  53  65 NE13      29.89F
$$

ANZ330-335-338-340-345-350-353-355-050000-
COASTAL MARINE OBSERVATIONS


STATION/POSITION TIME  SKY/WX   TEMP    WIND        PRES    VSBY  WAVE
                                AIR SEA DIR/SP/G                  HT/PER
                 (UTC)          (F)     (DEG/KT/KT) (MB)    (MI)  (FT/S)
NY HARB ENTRANCE 2250            71 69   70/  4/  4 1013.8          2/ 8
4S FIRE IS       2203               70                N/A           3/ 8
20S FIRE ISLAND  2250            69 69   40/  8/ 10 1013.6          3/ 8
GREAT SOUTH BAY  2200            72 75   90/  8/ 12   N/A
23SW MTP         2250            68 69   50/ 12/ 14 1013.3          3/ 8
HUDSON CANYON    NOT AVBL
KINGS POINT      2200            74 66   20/  6/  8 1013.3
CENTRAL LI SOUND NOT AVBL
EASTERN LI SOUND 2200            67 64   70/  4/  6   N/A
ROBBINS REEF     2200            74      70/  4/  4 1012.8
$$


>>>>>>>>>>>>>>>>>>>>>>>>>>>> KEY <<<<<<<<<<<<<<<<<<<<<<<<<<<
>                                                          <
>     SKY/WX - SKY CONDITION/PRESENT WEATHER               <
>     TMP    - TEMPERATURE IN FAHRENHEIT                   <
>     DP     - DEWPOINT IN FAHRENHEIT                      <
>     RH     - RELATIVE HUMIDITY IN PERCENT                <
>     WIND   - DIRECTION AND SPEED IN MPH                  <
>     PRES   - MEAN SEA LEVEL PRESSURE IN INCHES OF HG     <
>     WCI    - WIND CHILL INDEX                            <
>     VSB    - VISIBILITY IN MILES                         <
>     HX     - HEAT INDEX                                  <
>     TC     - TEMPERATURE IN CELSIUS                      <
>     VRB    - VARIABLE WIND DIRECTION                     <
>                                                          <
>>>>>>>>>>>>>>>>>>>>>>>>>>>> KEY <<<<<<<<<<<<<<<<<<<<<<<<<<<





USA.gov is the U.S. government's official web portal to all federal, state and local government web resources and services.